Regional Weather Roundup
Issued by NWS Upton, NY

Current Version | Previous Version | Text Only | Print | Product List | Glossary On
Versions: 1 2 3 4 5 6 7 8 9 10 11 12 13 14 15 16 17 18 19 20 21 22 23 24 25 26 27 28 29 30 31 32 33 34 35 36 37 38 39 40 41 42 43 44 45 46 47 48
000 ASUS41 KOKX 250407 RWROKX REGIONAL WEATHER ROUNDUP NATIONAL WEATHER SERVICE NEW YORK NY 1200 AM EDT SAT APR 25 2015 NOTE: "FAIR" INDICATES FEW OR NO CLOUDS BELOW 12,000 FEET WITH NO SIGNIFICANT WEATHER AND/OR OBSTRUCTIONS TO VISIBILITY. NYZ071-072-176-178-NJZ106-104-250500- NEW YORK CITY METRO AREA CITY SKY/WX TMP DP RH WIND PRES REMARKS CENTRAL PARK CLEAR 40 20 44 MISG 29.96R LAGUARDIA APRT CLEAR 40 22 48 NW16G23 29.93S WCI 31 KENNEDY INTL CLEAR 41 19 41 N21G26 29.93R NEWARK/LIBERTY CLEAR 40 21 46 NW15 29.94S WCI 32 BRNX BOT. GARD N/A 37 21 52 NW7 29.93F WCI 32 TETERBORO CLEAR 38 21 50 NW6 29.93S WCI 33 $$ NYZ177-179-078>081-250500- LONG ISLAND NEW YORK CITY SKY/WX TMP DP RH WIND PRES REMARKS FARMINGDALE CLEAR 39 20 46 NW10 29.92R WCI 32 ISLIP CLEAR 38 21 50 NW17 29.89R WCI 28 SHIRLEY CLEAR 38 20 48 N15 29.91R WCI 29 WESTHAMPTON CLEAR 38 20 48 NW14G23 29.90S WCI 30 MONTAUK POINT N/A 41 23 48 NW13 29.87S $$ NYZ052-065-067-250500- HUDSON VALLEY CITY SKY/WX TMP DP RH WIND PRES REMARKS WHITE PLAINS CLEAR 36 19 50 NW7 29.90R WCI 30 NEWBURGH CLEAR 34 21 60 VRB7 29.92F WCI 28 MONTGOMERY CLEAR 33 21 61 W6 29.92R WCI 28 POUGHKEEPSIE CLEAR 36 20 52 NW6 29.91F WCI 31 ALBANY PTCLDY 36 20 52 W9 29.90F WCI 29 $$ NJZ001-105-106-008-010-013-015-019>022-104-250500- NEW JERSEY CITY SKY/WX TMP DP RH WIND PRES REMARKS NEWARK/LIBERTY CLEAR 40 21 46 NW15 29.94S WCI 32 TETERBORO CLEAR 38 21 50 NW6 29.93S WCI 33 CALDWELL CLEAR 38 20 48 N8 29.95S WCI 32 MORRISTOWN CLEAR 41 21 45 N6 29.94S SOMERVILLE CLEAR 37 20 50 CALM 29.93S SUSSEX CLEAR 36 21 54 NW3 29.94S ANDOVER N/A 35 22 58 N5 29.93F WCI 31 TRENTON CLEAR 40 19 43 NW3 29.95R MILLVILLE CLEAR 42 24 49 NE6 29.95R ATLANTIC CITY CLEAR 38 28 67 N7 29.95R WCI 33 WRIGHTSTOWN CLEAR 36 22 57 NW7 29.93R WCI 30 TOMS RIVER CLEAR 30 23 74 CALM 29.96R BELMAR CLEAR 39 18 41 NW8 29.94S WCI 34 $$ PAZ047>061-062-071-250500- EASTERN PENNSYLVANIA CITY SKY/WX TMP DP RH WIND PRES REMARKS PHILADELPHIA PTCLDY 45 20 36 N16G23 29.97R ALLENTOWN CLEAR 38 21 50 NW5 29.96S WCI 34 SCRANTON MOCLDY 34 22 61 CALM 29.93F $$ CTZ002-004>006-009-010-012-RIZ004-006-007-MAZ004-011-015-250500- SOUTHERN NEW ENGLAND IN CT CITY SKY/WX TMP DP RH WIND PRES REMARKS BRADLEY INTL MOCLDY 38 20 48 NW15 29.85F WCI 29 HARTFORD CLEAR 38 20 48 W9G20 29.88F WCI 31 DANBURY CLEAR 34 18 52 W5 29.90F WCI 30 WTRBRY/OXFORD CLEAR 34 18 51 NW7 29.88S WCI 28 BRIDGEPORT CLEAR 39 21 48 NW8G17 29.90S WCI 33 MERIDEN CLEAR 37 19 48 NW5 29.89S WCI 33 NEW HAVEN CLEAR 38 20 48 NW12G18 29.89S WCI 30 CHESTER FAIR 36 21 55 NW8 29.86S WCI 29 GROTON CLEAR 38 19 46 NW12 29.85F WCI 30 WILLIMANTIC CLEAR 37 20 50 NW6 29.85S WCI 32 IN RI CITY SKY/WX TMP DP RH WIND PRES REMARKS PROVIDENCE PTCLDY 38 20 48 NW12 29.82F WCI 30 BLOCK ISLAND CLEAR 39 19 45 NW12G17 29.84S WCI 32 WESTERLY CLEAR 38 20 48 NW8 29.84F WCI 32 IN MA CITY SKY/WX TMP DP RH WIND PRES REMARKS BOSTON MOCLDY 42 23 46 NW10 29.79S WORCESTER MOCLDY 35 19 52 W13 29.78F WCI 26 WESTFIELD MOCLDY 37 20 50 W14 29.84F WCI 28 PROVINCETOWN CLOUDY N/A N/A N/A NW20G25 29.77S NANTUCKET MOCLDY 43 25 49 NW15G24 29.78R $$ ANZ330-335-338-340-345-350-353-355-250500- COASTAL MARINE OBSERVATIONS STATION/POSITION TIME SKY/WX TEMP WIND PRES VSBY WAVE AIR SEA DIR/SP/G HT/PER (UTC) (F) (DEG/KT/KT) (MB) (MI) (FT/S) NY HARB ENTRANCE 0350 42 44 330/ 19/ 23 1012.8 4/ 5 4S FIRE IS 0303 43 N/A 3/ 3 20S FIRE ISLAND 0350 41 43 340/ 21/ 25 1012.5 5/ 5 23SW MTP 0350 N/A 4/ 5 HUDSON CANYON NOT AVBL EXECUTION ROCKS NOT AVBL WESTERN LI SOUND NOT AVBL CENTRAL LI SOUND NOT AVBL EASTERN LI SOUND 0300 41 320/ 12/ 16 N/A ROBBINS REEF 0300 41 340/ 17/ 23 1012.2 $$ >>>>>>>>>>>>>>>>>>>>>>>>>>>> KEY <<<<<<<<<<<<<<<<<<<<<<<<<<< > < > SKY/WX - SKY CONDITION/PRESENT WEATHER < > TMP - TEMPERATURE IN FAHRENHEIT < > DP - DEWPOINT IN FAHRENHEIT < > RH - RELATIVE HUMIDITY IN PERCENT < > WIND - DIRECTION AND SPEED IN MPH < > PRES - MEAN SEA LEVEL PRESSURE IN INCHES OF HG < > WCI - WIND CHILL INDEX < > VSB - VISIBILITY IN MILES < > HX - HEAT INDEX < > TC - TEMPERATURE IN CELSIUS < > VRB - VARIABLE WIND DIRECTION < > < >>>>>>>>>>>>>>>>>>>>>>>>>>>> KEY <<<<<<<<<<<<<<<<<<<<<<<<<<<

USA.gov is the U.S. government's official web portal to all federal, state and local government web resources and services.